Wadesboro, NC

9:52 PM EDT on July 24, 2017 (GMT -0400)
Anson County

Weather History for KAFP - February, 2013

Change the Weather History Date:

Sunday, February 10, 2013

  Actual Average (KCLT) Record (KCLT)
Temperature  
Mean Temperature 42 °F -  
Max Temperature 59 °F 51 °F 76 °F (1938)
Min Temperature 25 °F 29 °F 8 °F (1934)
Degree Days  
Heating Degree Days 23    
Moisture  
Dew Point 29 °F    
Average Humidity 64    
Maximum Humidity 93    
Minimum Humidity 20    
Precipitation  
Precipitation 0.12 in - - ()
Sea Level Pressure  
Sea Level Pressure 30.35 in    
Wind  
Wind Speed 2 mph (SE)    
Max Wind Speed 10 mph    
Max Gust Speed 16 mph    
Visibility 10 miles    
Events Rain    
Averages and records for this station are not official NWS values.
T = Trace of Precipitation, MM = Missing Value Source: NWS Daily Summary

Daily Weather History Graph

Daily Weather History Graph

Search for Another Location

Airport or City:

Trip Planner

Search our weather history database for the weather conditions in past years. The results will help you decide how hot, cold, wet, or windy it might be!

Date:

Astronomy

Feb. 10, 2013 Rise Set
Actual Time 7:11 AM EST 5:58 PM EST
Civil Twilight 6:45 AM EST 6:24 PM EST
Nautical Twilight 6:15 AM EST 6:54 PM EST
Astronomical Twilight 5:45 AM EST 7:23 PM EST
Moon 7:02 AM EST (2/10) 6:43 PM EST (2/10)
Length of Visible Light 11h 39m
Length of Day
10h 47m
New Moon, 0% of the Moon is Illuminated
Feb 10
New Moon
Feb 17
First Quarter
Feb 25
Full
Mar 4
Last Quarter
Mar 11
New

Hourly Weather History & Observations

Time (EST) Temp. Dew Point Humidity Pressure Visibility Wind Dir Wind Speed Gust Speed Precip Events Conditions
12:15 AM 28.9 °F 24.8 °F 84% 30.35 in 10.0 mi Calm Calm - N/A   Clear
12:35 AM 29.3 °F 24.8 °F 83% 30.36 in 10.0 mi Calm Calm - N/A   Clear
12:55 AM 27.5 °F 23.9 °F 86% 30.36 in 10.0 mi Calm Calm - N/A   Clear
1:15 AM 28.6 °F 25.0 °F 86% 30.36 in 10.0 mi Calm Calm - N/A   Clear
1:35 AM 27.7 °F 24.3 °F 87% 30.36 in 10.0 mi Calm Calm - N/A   Clear
1:55 AM 27.5 °F 24.1 °F 87% 30.36 in 10.0 mi Calm Calm - N/A   Clear
2:15 AM 28.0 °F 25.2 °F 89% 30.37 in 10.0 mi Calm Calm - N/A   Clear
2:35 AM 26.8 °F 24.1 °F 90% 30.37 in 10.0 mi Calm Calm - N/A   Clear
2:55 AM 27.3 °F 24.3 °F 88% 30.37 in 10.0 mi Calm Calm - N/A   Clear
3:15 AM 27.9 °F 25.2 °F 90% 30.37 in 10.0 mi Calm Calm - N/A   Clear
3:35 AM 27.5 °F 24.4 °F 88% 30.38 in 10.0 mi Calm Calm - N/A   Clear
3:55 AM 27.1 °F 24.6 °F 90% 30.38 in 10.0 mi Calm Calm - N/A   Clear
4:15 AM 26.1 °F 23.5 °F 90% 30.38 in 10.0 mi Calm Calm - N/A   Clear
4:35 AM 25.7 °F 23.4 °F 91% 30.38 in 10.0 mi Calm Calm - N/A   Clear
4:55 AM 25.5 °F 23.0 °F 90% 30.38 in 10.0 mi Calm Calm - N/A   Clear
5:15 AM 26.1 °F 23.7 °F 91% 30.38 in 10.0 mi Calm Calm - N/A   Clear
5:35 AM 26.1 °F 23.7 °F 91% 30.39 in 10.0 mi Calm Calm - N/A   Clear
5:55 AM 26.6 °F 24.4 °F 92% 30.39 in 10.0 mi Calm Calm - N/A   Clear
6:15 AM 26.6 °F 24.3 °F 91% 30.40 in 10.0 mi Calm Calm - N/A   Clear
6:35 AM 27.5 °F 24.8 °F 90% 30.41 in 10.0 mi Calm Calm - N/A   Clear
6:55 AM 27.5 °F 24.8 °F 90% 30.41 in 10.0 mi Calm Calm - N/A   Clear
7:15 AM 28.4 °F 25.9 °F 90% 30.43 in 10.0 mi Calm Calm - N/A   Clear
7:35 AM 28.2 °F 25.7 °F 90% 30.43 in 10.0 mi Calm Calm - N/A   Clear
7:55 AM 29.5 °F 26.6 °F 89% 30.45 in 10.0 mi Calm Calm - N/A   Clear
8:15 AM 30.4 °F 27.5 °F 89% 30.46 in 10.0 mi Calm Calm - N/A   Clear
8:35 AM 31.6 °F 28.4 °F 88% 30.46 in 10.0 mi Calm Calm - N/A   Clear
8:55 AM 32.5 °F 28.6 °F 85% 30.47 in 10.0 mi Calm Calm - N/A   Clear
9:15 AM 34.9 °F 29.8 °F 82% 30.46 in 10.0 mi Calm Calm - N/A   Clear
9:35 AM 37.9 °F 29.7 °F 72% 30.45 in 10.0 mi Calm Calm - N/A   Clear
9:55 AM 41.2 °F 29.3 °F 63% 30.45 in 10.0 mi Calm Calm - N/A   Clear
10:15 AM 46.6 °F 23.7 °F 41% 30.45 in 10.0 mi SE 5.8 mph - N/A   Clear
10:35 AM 48.9 °F 17.2 °F 28% 30.46 in 10.0 mi ESE 4.6 mph - N/A   Clear
10:55 AM 50.2 °F 16.9 °F 27% 30.46 in 10.0 mi ESE 3.5 mph - N/A   Clear
11:15 AM 50.5 °F 16.3 °F 26% 30.45 in 10.0 mi SE 8.1 mph - N/A   Clear
11:35 AM 51.8 °F 16.7 °F 25% 30.45 in 10.0 mi SSE 5.8 mph - N/A   Clear
11:55 AM 52.7 °F 15.1 °F 23% 30.44 in 10.0 mi SSE 8.1 mph - N/A   Clear
12:15 PM 53.6 °F 13.3 °F 20% 30.42 in 10.0 mi ESE 10.4 mph - N/A   Clear
12:35 PM 54.9 °F 16.5 °F 22% 30.40 in 10.0 mi SE 10.4 mph - N/A   Clear
12:55 PM 55.4 °F 15.3 °F 21% 30.38 in 10.0 mi ESE 5.8 mph - N/A   Clear
1:15 PM 56.5 °F 16.2 °F 21% 30.37 in 10.0 mi SSE 6.9 mph - N/A   Clear
1:35 PM 55.9 °F 15.8 °F 21% 30.38 in 10.0 mi SE 8.1 mph - N/A   Clear
1:55 PM 58.1 °F 18.1 °F 21% 30.35 in 10.0 mi SE 4.6 mph - N/A   Clear
2:15 PM 58.8 °F 18.7 °F 21% 30.33 in 10.0 mi SE 9.2 mph - N/A   Clear
2:35 PM 58.8 °F 19.4 °F 22% 30.32 in 10.0 mi SE 6.9 mph - N/A   Clear
2:55 PM 58.5 °F 21.6 °F 24% 30.31 in 10.0 mi SSE 6.9 mph - N/A   Clear
3:15 PM 59.5 °F 26.1 °F 28% 30.30 in 10.0 mi SE 10.4 mph 16.1 mph N/A   Clear
3:35 PM 59.4 °F 29.1 °F 32% 30.30 in 10.0 mi SSE 6.9 mph - N/A   Clear
3:55 PM 59.5 °F 30.6 °F 33% 30.30 in 10.0 mi ESE 9.2 mph - N/A   Clear
4:15 PM 57.7 °F 32.2 °F 38% 30.29 in 10.0 mi SSE 6.9 mph - N/A   Mostly Cloudy
4:35 PM 57.7 °F 33.4 °F 40% 30.29 in 10.0 mi ESE 5.8 mph - N/A   Overcast
4:55 PM 57.4 °F 34.3 °F 42% 30.29 in 10.0 mi ESE 4.6 mph - N/A   Overcast
5:15 PM 57.2 °F 35.1 °F 43% 30.28 in 10.0 mi ESE 4.6 mph - N/A   Overcast
5:35 PM 56.3 °F 35.6 °F 46% 30.26 in 10.0 mi ESE 4.6 mph - N/A   Mostly Cloudy
5:55 PM 55.4 °F 36.1 °F 48% 30.26 in 10.0 mi SE 3.5 mph - N/A   Scattered Clouds
6:15 PM 55.2 °F 36.9 °F 50% 30.26 in 10.0 mi East 4.6 mph - N/A   Mostly Cloudy
6:35 PM 54.7 °F 37.4 °F 52% 30.26 in 10.0 mi ESE 3.5 mph - N/A   Overcast
6:55 PM 53.6 °F 38.5 °F 57% 30.26 in 10.0 mi Calm Calm - N/A   Overcast
7:15 PM 54.0 °F 38.5 °F 56% 30.25 in 10.0 mi Calm Calm - N/A   Overcast
7:35 PM 54.5 °F 39.2 °F 56% 30.25 in 10.0 mi Calm Calm - N/A   Overcast
7:55 PM 54.3 °F 39.9 °F 58% 30.25 in 10.0 mi East 3.5 mph - N/A   Mostly Cloudy
8:15 PM 54.7 °F 40.5 °F 59% 30.26 in 10.0 mi Calm Calm - N/A   Overcast
8:35 PM 52.2 °F 41.0 °F 66% 30.26 in 10.0 mi Calm Calm - N/A   Overcast
8:55 PM 52.2 °F 40.1 °F 64% 30.27 in 10.0 mi Calm Calm - N/A   Overcast
9:15 PM 52.0 °F 40.5 °F 65% 30.29 in 10.0 mi Calm Calm - N/A Rain Light Rain
9:35 PM 50.5 °F 44.4 °F 80% 30.29 in 10.0 mi Calm Calm - N/A Rain Light Rain
9:55 PM 49.3 °F 45.5 °F 87% 30.31 in 5.0 mi Calm Calm - 0.01 in Rain Rain
10:15 PM 48.2 °F 45.7 °F 91% 30.28 in 7.0 mi ESE 5.8 mph - 0.02 in Rain Light Rain
10:35 PM 48.6 °F 45.9 °F 90% 30.26 in 3.0 mi Calm Calm - 0.07 in Rain Rain
10:55 PM 49.5 °F 47.5 °F 93% 30.23 in 7.0 mi SE 4.6 mph - 0.10 in Rain Rain
11:15 PM 50.5 °F 48.4 °F 92% 30.22 in 10.0 mi SE 5.8 mph - 0.01 in Rain Rain
11:35 PM 50.5 °F 48.4 °F 92% 30.21 in 10.0 mi SE 6.9 mph - 0.01 in Rain Rain
11:55 PM 50.5 °F 48.4 °F 92% 30.20 in 10.0 mi SE 6.9 mph - 0.01 in Rain Rain